Goldsboro, NC

6:02 AM EDT on May 27, 2017 (GMT -0400)
Seymour Johnson Air Force Base

Weather History for KGSB - September, 2012

Change the Weather History Date:

Monday, September 10, 2012

  Actual Average Record
Temperature  
Mean Temperature 70 °F -  
Max Temperature 79 °F 81 °F 98 °F (2007)
Min Temperature 60 °F 64 °F 55 °F (1998)
Cooling Degree Days 4    
Growing Degree Days 20 (Base 50)    
Moisture  
Dew Point 45 °F    
Average Humidity 46    
Maximum Humidity 80    
Minimum Humidity 18    
Precipitation  
Precipitation 0.00 in - - ()
Sea Level Pressure  
Sea Level Pressure 30.06 in    
Wind  
Wind Speed 4 mph (North)    
Max Wind Speed 13 mph    
Max Gust Speed 18 mph    
Visibility 10 miles    
Events      
Averages and records for this station are not official NWS values.
T = Trace of Precipitation, MM = Missing Value Source: NWS Daily Summary

Daily Weather History Graph

Daily Weather History Graph

Search for Another Location

Airport or City:

Trip Planner

Search our weather history database for the weather conditions in past years. The results will help you decide how hot, cold, wet, or windy it might be!

Date:

Astronomy

Sep. 10, 2012 Rise Set
Actual Time 6:51 AM EDT 7:25 PM EDT
Civil Twilight 6:25 AM EDT 7:50 PM EDT
Nautical Twilight 5:55 AM EDT 8:21 PM EDT
Astronomical Twilight 5:24 AM EDT 8:51 PM EDT
Moon 1:19 AM EDT (9/10) 3:45 PM EDT (9/10)
Length of Visible Light 13h 25m
Length of Day
12h 34m
Waning Crescent, 30% of the Moon is Illuminated
Sep 10
Waning Crescent
Sep 15
New
Sep 22
First Quarter
Sep 29
Full
Oct 8
Last Quarter

Hourly Weather History & Observations

Time (EDT) Temp. Dew Point Humidity Pressure Visibility Wind Dir Wind Speed Gust Speed Precip Events Conditions
12:55 AM 61.9 °F 49.1 °F 63% 29.96 in 10.0 mi Calm Calm - N/A   Clear
1:55 AM 61.7 °F 50.0 °F 65% 29.96 in 10.0 mi West 3.5 mph - N/A   Clear
2:55 AM 61.7 °F 49.6 °F 65% 29.96 in 10.0 mi Calm Calm - N/A   Clear
3:55 AM 63.1 °F 47.7 °F 57% 29.97 in 10.0 mi Calm Calm - N/A   Clear
4:55 AM 62.4 °F 42.3 °F 48% 29.98 in 10.0 mi NNE 5.8 mph - N/A   Clear
5:55 AM 61.0 °F 42.1 °F 50% 29.99 in 10.0 mi North 3.5 mph - N/A   Clear
6:55 AM 60.6 °F 41.5 °F 49% 30.03 in 10.0 mi NNW 3.5 mph - N/A   Clear
7:55 AM 62.1 °F 42.4 °F 49% 30.05 in 10.0 mi NNW 4.6 mph - N/A   Clear
8:55 AM 66.2 °F 39.9 °F 38% 30.06 in 10.0 mi North 5.8 mph - N/A   Clear
9:55 AM 69.6 °F 39.2 °F 33% 30.08 in 10.0 mi North 8.1 mph - N/A   Clear
10:55 AM 72.5 °F 38.1 °F 29% 30.09 in 10.0 mi North 12.7 mph 17.3 mph N/A   Clear
11:55 AM 74.5 °F 37.2 °F 26% 30.09 in 10.0 mi NNW 6.9 mph - N/A   Clear
12:55 PM 76.5 °F 34.3 °F 22% 30.08 in 10.0 mi NNW 10.4 mph 17.3 mph N/A   Clear
1:55 PM 78.1 °F 34.0 °F 20% 30.07 in 10.0 mi North 10.4 mph - N/A   Clear
2:55 PM 78.8 °F 51.8 °F 39% 30.06 in 10.0 mi North 11.5 mph 18.4 mph N/A   Partly Cloudy
3:55 PM 79.7 °F 33.1 °F 18% 30.04 in 10.0 mi NNW 11.5 mph 16.1 mph N/A   Scattered Clouds
4:02 PM 78.8 °F 51.8 °F 39% 30.04 in 10.0 mi NNW 11.5 mph 16.1 mph N/A   Scattered Clouds
4:55 PM 78.4 °F 51.8 °F 39% 30.06 in 10.0 mi North 10.4 mph - N/A   Scattered Clouds
5:55 PM 77.4 °F 51.8 °F 41% 30.07 in 10.0 mi NNW 9.2 mph - N/A   Partly Cloudy
6:55 PM 75.6 °F 51.6 °F 43% 30.09 in 10.0 mi North 6.9 mph - N/A   Partly Cloudy
7:55 PM 69.8 °F 53.2 °F 56% 30.10 in 10.0 mi Calm Calm - N/A   Clear
8:55 PM 64.8 °F 53.2 °F 66% 30.12 in 10.0 mi Calm Calm - N/A   Clear
9:55 PM 60.4 °F 54.1 °F 80% 30.13 in 10.0 mi East 5.8 mph - N/A   Clear
10:55 PM 60.3 °F 48.7 °F 66% 30.15 in 10.0 mi Calm Calm - N/A   Clear
11:55 PM 60.6 °F 47.3 °F 61% 30.16 in 10.0 mi Calm Calm - N/A   Clear